Flag for United Kingdom Weather past 2 weeks in Caversham, England, United Kingdom

Now
39 °F

Passing clouds.


Feels Like: 33 °F
Forecast: N/A
Wind: 9 mph from Southwest

Location: Benson

Current Time: Mar 3, 2015 at 7:47:24 PM

Latest Report: Mar 3, 2015 at 7:00 PM


Visibility: 19 mi

Pressure: 30.09 "Hg

Humidity: 68%

Dew point: 29 °F

Location of CavershamLocation

Historic Weather in Caversham — Graph

°F

Caversham temperature yesterday

Maximum temperature yesterday: 47 °F (at 2:00 PM)
Minimum temperature yesterday: 35 °F (at 5:00 AM)
Average temperature yesterday: 40 °F

Past Weeks' High & Low Weather Summary

 TemperatureHumidityPressure
High52 °F (Feb 25, 3:00 PM)99% (Feb 20, 8:00 AM)30.77 "Hg (Feb 20, 8:00 AM)
Low22 °F (Feb 22, 5:00 AM)32% (Mar 2, 3:00 PM)29.23 "Hg (Feb 22, 10:00 PM)
Average41 °F80%29.87 "Hg
* Reported Feb 16 7:00 PM — Mar 3 6:00 PM, Caversham, Weather by CustomWeather, © 2015

Note: Actual official high and low records may vary slightly from our data, if they occured in-between our weather recording intervals... More about our weather records

Advertising

Caversham weather history for previous 24 hours

 ConditionsComfort  
Time TempWeatherWind HumidityBarometerVisibility
6:00 PM
Tue, Mar 3
41 °FPassing clouds.14 mph63%30.06 "Hg25 mi
5:00 PM44 °FPassing clouds.15 mph50%30.04 "Hg19 mi
4:00 PM45 °FPassing clouds.17 mph54%30.02 "Hg25 mi
3:00 PM46 °FScattered clouds.22 mph50%30.01 "Hg25 mi
2:00 PM47 °FPartly sunny.18 mph50%29.99 "Hg25 mi
1:00 PM46 °FScattered clouds.18 mph53%29.99 "Hg19 mi
12:00 PM45 °FPartly sunny.15 mph60%29.98 "Hg25 mi
11:00 AM44 °FPartly sunny.13 mph62%29.97 "Hg31 mi
10:00 AM42 °FPassing clouds.14 mph69%29.96 "Hg31 mi
9:00 AM40 °FPassing clouds.7 mph84%29.94 "Hg19 mi
8:00 AM38 °FSprinkles. Partly sunny.7 mph91%29.92 "Hg12 mi
7:00 AM38 °FPartly sunny.8 mph87%29.89 "Hg19 mi
6:00 AM36 °FPassing clouds.12 mph89%29.89 "Hg19 mi
5:00 AM36 °FOvercast.10 mph89%29.90 "Hg19 mi
4:00 AM35 °FOvercast.5 mph91%29.94 "Hg25 mi
3:00 AM34 °FPassing clouds.7 mph89%29.96 "Hg19 mi
2:00 AM36 °FChilly.8 mph87%29.97 "Hg19 mi
1:00 AM36 °FChilly.9 mph86%29.98 "Hg19 mi
12:00 AM37 °FPassing clouds.12 mph80%29.99 "Hg19 mi
11:00 PM
Mon, Mar 2
36 °FPassing clouds.9 mph82%29.98 "Hg25 mi
10:00 PM38 °FPassing clouds.12 mph80%29.98 "Hg25 mi
8:00 PM38 °FClear.13 mph71%29.95 "Hg25 mi
7:00 PM39 °FPassing clouds.8 mph64%29.93 "Hg25 mi
Weather by CustomWeather, © 2015

See weather overviewHow to use our weather pages